Location: Anumalkud?ru
(16.4847°N, 80.6636°E)
Time: 15:26:24
(UTC+00:00)

GPS 2-17 Rocket1 - Pass Details

Date: 11 April 2026
Orbit: 544 x 613 km, 20.3° (Epoch: 10 May)

Event Time Altitude Azimuth Distance (km) Brightness Sun altitude
Rises 13:53:37 0° 277° (W) 2,858 8.3 -15.3°
Reaches altitude 10° 13:56:01 10° 283° (WNW) 1,952 7.0 -15.9°
Maximum altitude 14:00:29 51° 359° (N) 756 3.5 -16.9°
Enters shadow 14:02:45 26° 64° (ENE) 1,185 4.1 -17.4°
